EW1620 Weather Reports


Display with metric or nautical units.
time (UTC)temp
F
wind
direction
speed
MPH
gust
MPH
rain 1hr
in
rain 24hr
in
rain mn
in
humidity
%
barometer
mb
20260903104601 52 269 0.0 3.0 0.00 0.03 0.03 68 1018.9
20260903104059 52 269 0.0 3.0 0.00 0.03 0.03 68 1018.7
20260903103001 53 279 0.0 2.0 0.00 0.03 0.03 67 1018.5
20260903102559 53 303 1.0 2.0 0.00 0.03 0.03 67 1018.4
20260903102059 53 306 1.0 3.0 0.00 0.03 0.03 67 1018.3
20260903101603 54 346 0.0 3.0 0.00 0.03 0.03 66 1018.2
20260903101059 54 346 1.0 3.0 0.00 0.03 0.03 65 1018.2
20260903100558 54 254 0.0 1.0 0.00 0.03 0.03 64 1018.1
20260903100057 55 254 0.0 1.0 0.00 0.03 0.03 64 1018.0
20260903095600 55 254 0.0 1.0 0.00 0.03 0.03 64 1018.0
20260903095056 55 254 0.0 1.0 0.00 0.03 0.03 64 1017.9
20260903094639 55 254 0.0 1.0 0.00 0.03 0.03 63 1017.8
20260903094055 56 254 0.0 1.0 0.00 0.03 0.03 63 1017.7
20260903093050 56 254 0.0 0.0 0.00 0.03 0.03 63 1017.8
20260903092550 56 254 0.0 0.0 0.00 0.03 0.03 63 1017.8
20260903092049 56 254 0.0 3.0 0.00 0.03 0.03 63 1017.6
20260903091546 56 254 0.0 4.0 0.00 0.03 0.03 63 1017.6
20260903091045 57 254 1.0 4.0 0.00 0.03 0.03 62 1017.5
20260903090544 57 262 1.0 6.0 0.00 0.03 0.03 62 1017.4
20260903090044 57 278 2.0 7.0 0.00 0.03 0.03 61 1017.3
20260903085542 57 254 2.0 7.0 0.00 0.03 0.03 60 1017.3
20260903085042 57 206 1.0 7.0 0.00 0.03 0.03 59 1017.1
20260903084544 57 257 0.0 6.0 0.00 0.03 0.03 59 1017.1
20260903084040 57 269 1.0 7.0 0.00 0.03 0.03 58 1016.9
20260903083045 58 265 1.0 7.0 0.00 0.03 0.03 57 1016.8
20260903082544 58 248 2.0 7.0 0.00 0.03 0.03 57 1016.6
20260903082043 58 264 2.0 6.0 0.00 0.03 0.03 57 1016.5
20260903081543 59 258 2.0 8.0 0.00 0.03 0.03 56 1016.5
20260903081041 59 273 2.0 8.0 0.00 0.03 0.03 56 1016.4
20260903080541 60 242 1.0 2.0 0.00 0.03 0.03 57 1016.4
20260903080055 60 257 0.0 2.0 0.00 0.03 0.03 57 1016.3
20260903075540 60 257 0.0 3.0 0.00 0.03 0.03 57 1016.2
20260903075038 60 257 1.0 3.0 0.00 0.03 0.03 56 1016.2
20260903074537 61 263 1.0 4.0 0.00 0.03 0.03 56 1016.1
20260903074036 61 229 1.0 4.0 0.00 0.03 0.03 54 1016.0
20260903073033 61 222 3.0 9.0 0.00 0.03 0.03 53 1015.7
20260903072531 62 251 1.0 9.0 0.00 0.03 0.03 51 1015.6
20260903072032 62 205 4.0 11.0 0.00 0.03 0.03 50 1015.6
20260903071530 62 260 4.0 10.0 0.00 0.03 0.03 49 1015.5
20260903071028 62 274 3.0 10.0 0.00 0.03 0.03 48 1015.4
20260903070528 62 273 3.0 11.0 0.00 0.03 0.03 48 1015.3
20260903070028 62 254 4.0 11.0 0.00 0.03 0.03 47 1015.3
20260903065527 63 276 5.0 12.0 0.00 0.03 0.03 47 1015.2
20260903065026 63 266 4.0 13.0 0.00 0.03 0.03 46 1015.1
20260903064526 63 241 4.0 13.0 0.00 0.03 0.03 46 1015.1
20260903064025 63 236 5.0 12.0 0.00 0.03 0.03 46 1015.0
20260903063022 64 204 6.0 12.0 0.00 0.03 0.03 44 1014.7
20260903062522 64 258 5.0 15.0 0.00 0.03 0.03 44 1014.7
20260903062021 64 283 5.0 15.0 0.00 0.03 0.03 43 1014.6
20260903061521 64 273 6.0 12.0 0.00 0.03 0.03 43 1014.6
20260903061021 64 269 6.0 13.0 0.00 0.03 0.03 43 1014.5
20260903060520 64 286 6.0 13.0 0.00 0.03 0.03 43 1014.3
20260903060020 64 249 5.0 13.0 0.00 0.03 0.03 43 1014.4
20260903055519 64 261 5.0 13.0 0.00 0.03 0.03 44 1014.3
20260903055018 64 292 6.0 13.0 0.00 0.03 0.03 45 1014.2
20260903054518 64 269 6.0 15.0 0.00 0.03 0.03 45 1014.2
20260903054018 63 269 10.0 24.0 0.00 0.03 0.03 45 1014.2
20260903053020 64 263 10.0 15.0 0.00 0.03 0.03 44 1014.1
20260903052521 64 270 8.0 16.0 0.00 0.03 0.03 44 1014.0
20260903052020 64 254 6.0 16.0 0.00 0.03 0.03 46 1013.9
20260903051520 64 288 6.0 16.0 0.00 0.03 0.03 46 1013.8
20260903051018 64 294 8.0 18.0 0.00 0.03 0.03 46 1013.9
20260903050519 64 297 10.0 18.0 0.00 0.03 0.03 45 1013.9
20260903050023 65 278 9.0 20.0 0.00 0.03 0.03 45 1013.8
20260903045518 65 271 6.0 20.0 0.00 0.03 0.03 45 1013.7
20260903045016 65 271 9.0 15.0 0.00 0.03 0.03 45 1013.7
20260903044522 65 274 5.0 21.0 0.00 0.03 0.03 46 1013.6
20260903044015 65 284 7.0 15.0 0.00 0.03 0.03 48 1013.7
20260903043017 64 247 7.0 15.0 0.00 0.03 0.03 52 1013.5
20260903042514 64 275 5.0 15.0 0.00 0.03 0.03 53 1013.6
20260903042014 64 216 5.0 16.0 0.00 0.03 0.03 54 1013.6
20260903041515 64 235 7.0 16.0 0.00 0.03 0.03 53 1013.5
20260903041013 65 285 6.0 14.0 0.00 0.03 0.03 52 1013.4
20260903040512 65 239 7.0 19.0 0.00 0.03 0.03 53 1013.3
20260903040012 65 240 7.0 19.0 0.00 0.03 0.03 48 1013.3
20260903035511 64 279 10.0 18.0 0.00 0.03 0.03 49 1013.1
20260903035011 64 288 7.0 19.0 0.00 0.03 0.03 50 1013.1
20260903034511 64 256 7.0 19.0 0.00 0.03 0.03 50 1013.0
20260903034010 64 249 9.0 21.0 0.00 0.03 0.03 49 1013.1
20260903033011 65 263 11.0 19.0 0.00 0.03 0.03 53 1012.9
20260903032509 64 155 7.0 19.0 0.00 0.03 0.03 59 1012.9
20260903032007 64 269 6.0 17.0 0.00 0.03 0.03 62 1013.0
20260903031507 63 309 6.0 20.0 0.00 0.03 0.03 61 1013.1
20260903031007 63 259 8.0 20.0 0.01 0.03 0.03 65 1013.1
20260903030509 62 275 5.0 16.0 0.03 0.03 0.03 67 1013.1
20260903030007 61 285 8.0 16.0 0.03 0.03 0.03 68 1013.1
20260903025506 60 253 7.0 14.0 0.03 0.03 0.03 70 1013.1
20260903025006 60 277 7.0 14.0 0.03 0.03 0.03 71 1013.2
20260903024506 60 255 7.0 16.0 0.03 0.03 0.03 74 1013.1
20260903024005 59 251 6.0 11.0 0.03 0.03 0.03 79 1013.1
20260903023008 58 297 5.0 12.0 0.03 0.03 0.03 79 1013.2
20260903022505 58 305 3.0 11.0 0.03 0.03 0.03 78 1013.2
20260903022005 58 275 6.0 16.0 0.03 0.03 0.03 75 1013.3
20260903021505 59 215 5.0 16.0 0.03 0.03 0.03 73 1013.2
20260903021004 60 249 6.0 20.0 0.03 0.03 0.03 70 1013.2
20260903020504 62 293 8.0 20.0 0.02 0.02 0.02 66 1013.0
20260903020003 63 283 5.0 13.0 0.00 0.00 0.00 61 1012.6
20260903015503 63 276 7.0 16.0 0.00 0.00 0.00 61 1012.5
20260903015002 63 253 9.0 25.0 0.00 0.00 0.00 60 1012.4
20260903014501 63 252 13.0 25.0 0.00 0.00 0.00 59 1012.4
20260903014101 63 292 10.0 21.0 0.00 0.00 0.00 61 1012.4
20260903013002 62 265 9.0 18.0 0.00 0.00 0.00 62 1012.4
20260903012500 62 273 11.0 18.0 0.00 0.00 0.00 61 1012.4
20260903012102 62 284 11.0 18.0 0.00 0.00 0.00 63 1012.4
20260903011558 61 286 9.0 21.0 0.00 0.00 0.00 64 1012.5
20260903011101 61 269 10.0 21.0 0.00 0.00 0.00 65 1012.4
20260903010555 61 273 9.0 21.0 0.00 0.00 0.00 69 1012.4
20260903010054 60 302 9.0 21.0 0.00 0.00 0.00 69 1012.4
20260903005554 60 291 9.0 15.0 0.00 0.00 0.00 71 1012.3
20260903005055 59 316 3.0 17.0 0.00 0.00 0.00 73 1012.2
20260903004556 59 312 7.0 17.0 0.00 0.00 0.00 72 1012.2
20260903004050 58 260 9.0 16.0 0.00 0.00 0.00 71 1012.2
20260903003051 58 275 10.0 20.0 0.00 0.00 0.00 73 1012.2
20260903002549 58 259 8.0 15.0 0.00 0.00 0.00 75 1012.2
20260903002049 58 291 6.0 15.0 0.00 0.00 0.00 77 1012.1
20260903001601 58 294 4.0 17.0 0.00 0.00 0.00 75 1012.3
20260903001047 58 296 6.0 23.0 0.00 0.00 0.00 73 1012.4
20260903000547 58 277 9.0 23.0 0.00 0.00 0.00 70 1012.4
20260903000046 59 282 6.0 14.0 0.00 0.00 0.00 71 1012.3
20260902235546 59 274 6.0 13.0 0.00 0.00 0.00 70 1012.2
20260902235045 59 292 4.0 13.0 0.00 0.00 0.00 70 1012.1
20260902234546 59 277 5.0 12.0 0.00 0.00 0.00 70 1012.0
20260902234042 59 251 5.0 12.0 0.00 0.00 0.00 70 1011.8
20260902233044 59 278 6.0 14.0 0.00 0.00 0.00 70 1011.6
20260902232542 59 296 6.0 14.0 0.00 0.00 0.00 71 1011.7
20260902232041 58 308 7.0 13.0 0.00 0.00 0.00 71 1011.6
20260902231542 58 242 5.0 13.0 0.00 0.00 0.00 72 1011.5
20260902231039 58 291 4.0 13.0 0.00 0.00 0.00 72 1011.5
20260902230537 57 274 5.0 10.0 0.00 0.00 0.00 72 1011.4
20260902230036 57 261 2.0 9.0 0.00 0.00 0.00 73 1011.4
20260902225535 57 28 3.0 10.0 0.00 0.00 0.00 73 1011.3
20260902225034 56 298 4.0 10.0 0.00 0.00 0.00 73 1011.3
20260902224537 56 270 5.0 14.0 0.00 0.00 0.00 73 1011.2
20260902224032 56 311 6.0 12.0 0.00 0.00 0.00 73 1011.1
20260902223031 55 302 4.0 11.0 0.00 0.00 0.00 74 1010.8
20260902222526 55 331 3.0 10.0 0.00 0.00 0.00 74 1010.7
20260902222032 55 296 4.0 9.0 0.00 0.00 0.00 75 1010.7
20260902221524 54 304 3.0 5.0 0.00 0.00 0.00 75 1010.6
20260902221023 54 317 1.0 5.0 0.00 0.00 0.00 75 1010.6
20260902220522 54 323 2.0 5.0 0.00 0.00 0.00 75 1010.6
20260902220021 54 10 1.0 6.0 0.00 0.00 0.00 76 1010.7
20260902215520 54 319 3.0 8.0 0.00 0.00 0.00 77 1010.6
20260902215018 53 335 1.0 8.0 0.00 0.00 0.00 77 1010.6
20260902214517 53 290 1.0 6.0 0.00 0.00 0.00 77 1010.7
20260902214015 52 336 2.0 8.0 0.00 0.00 0.00 78 1010.6
20260902213016 52 301 1.0 7.0 0.00 0.00 0.00 78 1010.5
20260902212513 52 315 2.0 9.0 0.00 0.00 0.00 79 1010.5
20260902212011 51 251 2.0 9.0 0.00 0.00 0.00 78 1010.5
20260902211511 51 304 0.0 7.0 0.00 0.00 0.00 78 1010.4
20260902211009 51 282 0.0 5.0 0.00 0.00 0.00 78 1010.2
20260902210509 51 316 2.0 4.0 0.00 0.00 0.00 77 1010.0
20260902210009 51 340 1.0 4.0 0.00 0.00 0.00 77 1009.9
20260902205508 51 305 1.0 4.0 0.00 0.00 0.00 76 1009.9
20260902205007 51 348 1.0 3.0 0.00 0.00 0.00 76 1009.7
20260902204507 51 323 0.0 3.0 0.00 0.00 0.00 76 1009.6
20260902204006 51 317 0.0 3.0 0.00 0.00 0.00 76 1009.5
20260902203010 51 346 3.0 8.0 0.00 0.00 0.00 75 1009.4
20260902202510 51 5 0.0 3.0 0.00 0.00 0.00 75 1009.6
20260902202010 51 5 0.0 4.0 0.00 0.00 0.00 75 1009.5
20260902201512 51 5 2.0 5.0 0.00 0.00 0.00 75 1009.6
20260902201011 52 333 1.0 8.0 0.00 0.00 0.00 75 1009.8
20260902200509 52 325 3.0 8.0 0.00 0.00 0.00 75 1009.7
20260902200010 51 321 1.0 8.0 0.00 0.00 0.00 75 1009.7
20260902195507 51 302 2.0 10.0 0.00 0.00 0.00 75 1009.7
20260902195009 51 293 3.0 10.0 0.00 0.00 0.00 75 1009.7
20260902194505 51 304 5.0 10.0 0.00 0.00 0.00 75 1009.6
20260902194004 51 295 2.0 8.0 0.00 0.00 0.00 75 1009.7
20260902193002 51 331 3.0 10.0 0.00 0.00 0.00 75 1009.6
20260902192501 51 294 3.0 9.0 0.00 0.00 0.00 75 1009.6
20260902192001 50 292 2.0 9.0 0.00 0.00 0.00 75 1009.6
20260902191501 50 332 3.0 9.0 0.00 0.00 0.00 74 1009.7
20260902191000 50 333 3.0 5.0 0.00 0.00 0.00 74 1009.6
20260902190604 50 339 0.0 5.0 0.00 0.00 0.00 73 1009.4
20260902190126 50 340 2.0 5.0 0.00 0.00 0.00 73 1009.4
20260902185600 50 303 1.0 5.0 0.00 0.00 0.00 73 1009.3
20260902185059 50 5 2.0 5.0 0.00 0.00 0.00 73 1009.3
20260902184608 50 306 1.0 3.0 0.00 0.00 0.00 72 1009.5
20260902184059 50 355 0.0 5.0 0.00 0.00 0.00 73 1009.4
20260902183659 50 303 0.0 4.0 0.00 0.00 0.00 72 1009.2
20260902183001 50 285 0.0 4.0 0.00 0.00 0.00 72 1009.2
20260902182600 51 254 0.0 4.0 0.00 0.00 0.00 72 1009.4
20260902182103 51 355 0.0 4.0 0.00 0.00 0.00 72 1009.3
20260902181620 51 323 1.0 11.0 0.00 0.00 0.00 72 1009.3
20260902181100 50 313 1.0 11.0 0.00 0.00 0.00 72 1009.2
20260902180559 50 332 0.0 6.0 0.00 0.00 0.00 72 1009.2
20260902180059 50 290 1.0 3.0 0.00 0.00 0.00 72 1009.2
20260902175559 51 304 0.0 3.0 0.00 0.00 0.00 72 1009.2
20260902175059 51 333 0.0 3.0 0.00 0.00 0.00 72 1009.2
20260902174558 51 325 1.0 4.0 0.00 0.00 0.00 72 1009.2
20260902174058 51 329 0.0 5.0 0.00 0.00 0.00 72 1009.2
20260902173701 51 315 3.0 8.0 0.00 0.00 0.00 72 1009.3
20260902173056 51 331 2.0 8.0 0.00 0.00 0.00 72 1009.2
20260902172555 51 346 2.0 9.0 0.00 0.00 0.00 73 1009.5
20260902172056 50 5 4.0 9.0 0.00 0.00 0.00 73 1009.4
20260902171614 50 340 3.0 9.0 0.00 0.00 0.00 74 1009.6
20260902171053 50 332 3.0 10.0 0.00 0.00 0.00 74 1009.7
20260902170551 50 340 4.0 10.0 0.00 0.00 0.00 75 1009.8
20260902170051 49 5 3.0 9.0 0.00 0.00 0.00 76 1009.9
20260902165549 49 277 4.0 9.0 0.00 0.00 0.00 76 1009.9
20260902165052 49 360 2.0 6.0 0.00 0.00 0.00 77 1010.1
20260902164546 49 325 3.0 8.0 0.00 0.00 0.00 77 1010.1
20260902164046 48 315 2.0 8.0 0.00 0.00 0.00 78 1010.1
20260902163647 48 311 2.0 6.0 0.00 0.00 0.00 79 1010.2
20260902163046 48 339 2.0 6.0 0.00 0.00 0.00 79 1010.2
20260902162545 48 320 2.0 7.0 0.00 0.00 0.00 80 1010.3
20260902162044 47 334 2.0 7.0 0.00 0.00 0.00 81 1010.3
20260902161548 47 298 2.0 8.0 0.00 0.00 0.00 82 1010.3
20260902161041 46 305 3.0 8.0 0.00 0.00 0.00 83 1010.3
20260902160540 46 268 3.0 9.0 0.00 0.00 0.00 83 1010.2
20260902160042 45 271 2.0 9.0 0.00 0.00 0.00 83 1010.2
20260902155538 44 277 2.0 6.0 0.00 0.00 0.00 83 1010.1
20260902155037 44 294 1.0 5.0 0.00 0.00 0.00 82 1010.1
20260902154538 43 306 1.0 6.0 0.00 0.00 0.00 80 1010.1
20260902154037 43 296 0.0 4.0 0.00 0.00 0.00 78 1010.1
20260902153635 43 360 0.0 1.0 0.00 0.00 0.00 77 1010.2
20260902153033 43 360 0.0 1.0 0.00 0.00 0.00 77 1010.1
20260902152532 43 360 0.0 0.0 0.00 0.00 0.00 77 1010.1
20260902152033 43 360 0.0 0.0 0.00 0.00 0.00 77 1010.1
20260902151533 43 360 0.0 1.0 0.00 0.00 0.00 77 1010.3
20260902151034 43 360 0.0 0.0 0.00 0.00 0.00 77 1010.4
20260902150530 43 360 0.0 1.0 0.00 0.00 0.00 77 1010.4
20260902150029 44 360 0.0 1.0 0.00 0.00 0.00 77 1010.4
20260902145528 44 360 0.0 1.0 0.00 0.00 0.00 76 1010.3
20260902145030 44 339 0.0 1.0 0.00 0.00 0.00 75 1010.2
20260902144530 44 339 0.0 1.0 0.00 0.00 0.00 75 1010.2
20260902144025 44 339 0.0 0.0 0.00 0.00 0.00 74 1010.3
20260902143628 44 339 0.0 0.0 0.00 0.00 0.00 75 1010.4
20260902143030 44 339 0.0 0.0 0.00 0.00 0.00 74 1010.5
20260902142526 44 339 0.0 1.0 0.00 0.00 0.00 74 1010.7
20260902142025 44 339 0.0 1.0 0.00 0.00 0.00 74 1010.8
20260902141531 45 339 0.0 1.0 0.00 0.00 0.00 74 1010.8
20260902141024 45 339 0.0 1.0 0.00 0.00 0.00 73 1010.8
20260902140522 45 339 0.0 0.0 0.00 0.00 0.00 73 1011.0
20260902140020 45 339 0.0 0.0 0.00 0.00 0.00 73 1011.0
20260902135520 45 339 0.0 0.0 0.00 0.00 0.00 73 1011.0
20260902135019 46 339 0.0 0.0 0.00 0.00 0.00 73 1011.1
20260902134524 46 339 0.0 0.0 0.00 0.00 0.00 73 1011.1
20260902134017 46 339 0.0 0.0 0.00 0.00 0.00 73 1011.1
20260902133617 46 339 0.0 0.0 0.00 0.00 0.00 73 1011.1
20260902133027 46 339 0.0 0.0 0.00 0.00 0.00 72 1011.1
20260902132519 47 339 0.0 0.0 0.00 0.00 0.00 72 1011.2
20260902132016 47 339 0.0 1.0 0.00 0.00 0.00 72 1011.2
20260902131516 47 339 0.0 1.0 0.00 0.00 0.00 72 1011.2
20260902131015 47 339 0.0 1.0 0.00 0.00 0.00 71 1011.3
20260902130514 48 339 0.0 1.0 0.00 0.00 0.00 70 1011.3
20260902130014 48 339 0.0 0.0 0.00 0.00 0.00 70 1011.3
20260902125513 48 339 0.0 0.0 0.00 0.00 0.00 69 1011.3
20260902125111 48 339 0.0 0.0 0.00 0.00 0.00 69 1011.4
20260902124511 49 339 0.0 0.0 0.00 0.00 0.00 69 1011.5
20260902124009 49 339 0.0 1.0 0.00 0.00 0.00 68 1011.5
20260902123610 49 339 0.0 1.0 0.00 0.00 0.00 68 1011.6
20260902123008 49 339 0.0 1.0 0.00 0.00 0.00 68 1011.6
20260902122508 50 339 0.0 1.0 0.00 0.00 0.00 67 1011.7
20260902122009 50 339 0.0 1.0 0.00 0.00 0.00 67 1011.7
20260902121508 50 339 0.0 1.0 0.00 0.00 0.00 67 1011.7
20260902121006 51 339 0.0 1.0 0.00 0.00 0.00 66 1011.8
20260902120506 51 339 0.0 1.0 0.00 0.00 0.00 66 1011.9
20260902120003 51 339 0.0 1.0 0.00 0.00 0.00 66 1011.8
20260902115507 51 339 0.0 1.0 0.00 0.00 0.00 65 1011.9
20260902115002 52 339 0.0 1.0 0.00 0.00 0.00 65 1012.0
20260902114502 52 339 0.0 1.0 0.00 0.00 0.00 65 1012.0
20260902114003 52 339 0.0 1.0 0.00 0.00 0.00 65 1012.1
20260902113600 52 339 0.0 1.0 0.00 0.00 0.00 65 1012.0
20260902113106 52 339 0.0 1.0 0.00 0.00 0.00 65 1012.0
20260902112558 52 339 0.0 4.0 0.00 0.00 0.00 65 1012.0
20260902112058 53 339 1.0 4.0 0.00 0.00 0.00 65 1011.9
20260902111558 53 334 0.0 3.0 0.00 0.00 0.00 64 1011.9
20260902111058 53 340 1.0 3.0 0.00 0.00 0.00 64 1011.8
20260902110600 53 333 0.0 3.0 0.00 0.00 0.00 63 1011.8
20260902110059 54 294 0.0 2.0 0.00 0.00 0.00 63 1011.8
20260902105559 54 294 0.0 2.0 0.00 0.00 0.00 63 1011.7
20260902105057 54 294 0.0 3.0 0.00 0.00 0.00 63 1011.7